Location: Beddau
(51.5575°N, 3.3561°W)
Time: 16:40:25
(UTC+00:00)

Cosmos 1461 - Pass Details

Date: 03 March 2021
Orbit: 504 x 660 km, 65.0° (Epoch: 12 April)

Event Time Altitude Azimuth Distance (km) Brightness Sun altitude
Rises 19:07:33 0° 230° (SW) 2,973 7.3 -11.7°
Reaches altitude 10° 19:09:52 10° 233° (SW) 2,072 6.5 -12.0°
Maximum altitude 19:14:35 65° 316° (NW) 731 3.6 -12.8°
Drops below altitude 10° 19:19:17 10° 38° (NE) 2,072 5.4 -13.5°
Enters shadow 19:20:38 - 40° (NE) 2,593 5.9 -13.7°
